FW8526 Weather Reports


Display with metric or nautical units.
time (UTC)temp
F
wind
direction
speed
MPH
gust
MPH
rain 1hr
in
rain 24hr
in
rain mn
in
humidity
%
barometer
mb
20260502223213 66 1 14.0 17.0 0.00 0.00 0.00 34 1018.1
20260502222823 66 354 9.0 11.0 0.00 0.00 0.00 34 1018.4
20260502222710 66 9 12.0 15.0 0.00 0.00 0.00 34 1018.2
20260502222206 66 6 12.0 15.0 0.00 0.00 0.00 34 1018.2
20260502221922 66 314 6.0 9.0 0.00 0.00 0.00 34 1018.2
20260502221702 66 344 7.0 13.0 0.00 0.00 0.00 34 1018.2
20260502221159 65 4 9.0 13.0 0.00 0.00 0.00 34 1018.4
20260502220923 65 2 8.0 14.0 0.00 0.00 0.00 35 1018.5
20260502220655 65 349 12.0 19.0 0.00 0.00 0.00 34 1018.1
20260502220152 66 8 10.0 13.0 0.00 0.00 0.00 34 1018.5
20260502215922 65 14 12.0 14.0 0.00 0.00 0.00 34 1018.7
20260502215649 65 311 6.0 9.0 0.00 0.00 0.00 34 1018.5
20260502215146 65 321 6.0 11.0 0.00 0.00 0.00 33 1018.6
20260502214924 65 352 11.0 14.0 0.00 0.00 0.00 35 1018.8
20260502214643 65 35 10.0 15.0 0.00 0.00 0.00 34 1018.6
20260502214140 65 360 10.0 12.0 0.00 0.00 0.00 35 1018.5
20260502214023 64 4 9.0 11.0 0.00 0.00 0.00 35 1018.7
20260502213924 64 21 3.0 4.0 0.00 0.00 0.00 34 1018.9
20260502213637 64 17 6.0 8.0 0.00 0.00 0.00 35 1018.7
20260502213134 63 313 5.0 7.0 0.00 0.00 0.00 35 1018.9
20260502212922 63 344 11.0 14.0 0.00 0.00 0.00 36 1019.0
20260502212633 63 353 11.0 17.0 0.00 0.00 0.00 37 1018.7
20260502212131 63 34 14.0 16.0 0.00 0.00 0.00 37 1018.8
20260502211626 64 50 12.0 15.0 0.00 0.00 0.00 36 1018.9
20260502211124 64 46 17.0 20.0 0.00 0.00 0.00 36 1018.8
20260502210924 64 17 12.0 20.0 0.00 0.00 0.00 36 1019.0
20260502210621 64 4 10.0 21.0 0.00 0.00 0.00 35 1019.0
20260502210118 65 31 18.0 21.0 0.00 0.00 0.00 35 1018.8
20260502205923 64 18 12.0 15.0 0.00 0.00 0.00 35 1019.0
20260502205614 65 343 12.0 16.0 0.00 0.00 0.00 34 1018.9
20260502205112 65 19 15.0 18.0 0.00 0.00 0.00 34 1018.8
20260502204923 65 359 15.0 21.0 0.00 0.00 0.00 34 1019.0
20260502204822 65 342 13.0 16.0 0.00 0.00 0.00 34 1019.1
20260502204723 65 321 9.0 14.0 0.00 0.00 0.00 34 1019.2
20260502204608 65 342 6.0 11.0 0.00 0.00 0.00 33 1019.0
20260502204106 65 341 10.0 15.0 0.00 0.00 0.00 35 1019.0
20260502203724 64 349 13.0 17.0 0.00 0.00 0.00 35 1019.1
20260502203603 65 328 11.0 19.0 0.00 0.00 0.00 34 1019.0
20260502203100 65 19 11.0 14.0 0.00 0.00 0.00 35 1019.1
20260502202821 64 68 6.0 8.0 0.00 0.00 0.00 35 1019.2
20260502202555 65 35 10.0 12.0 0.00 0.00 0.00 35 1019.1
20260502202054 65 360 1.0 2.0 0.00 0.00 0.00 35 1019.3
20260502201550 65 11 9.0 11.0 0.00 0.00 0.00 35 1019.5
20260502201047 65 313 3.0 5.0 0.00 0.00 0.00 37 1019.5
20260502200923 64 285 3.0 5.0 0.00 0.00 0.00 36 1019.5
20260502200542 64 359 12.0 14.0 0.00 0.00 0.00 36 1019.3
20260502200041 63 331 6.0 14.0 0.00 0.00 0.00 37 1019.5
20260502195538 63 25 7.0 9.0 0.00 0.00 0.00 37 1019.6
20260502195033 63 45 11.0 15.0 0.00 0.00 0.00 36 1019.5
20260502194923 63 43 10.0 14.0 0.00 0.00 0.00 36 1019.6
20260502194530 63 17 14.0 18.0 0.00 0.00 0.00 36 1019.5
20260502194026 63 341 7.0 11.0 0.00 0.00 0.00 35 1019.6
20260502193923 63 337 5.0 6.0 0.00 0.00 0.00 35 1019.7
20260502193822 63 337 3.0 4.0 0.00 0.00 0.00 35 1019.8
20260502193524 64 332 9.0 11.0 0.00 0.00 0.00 35 1019.7
20260502193021 64 359 10.0 14.0 0.00 0.00 0.00 37 1019.6
20260502192725 63 1 11.0 14.0 0.00 0.00 0.00 37 1019.8
20260502192516 63 360 3.0 4.0 0.00 0.00 0.00 37 1019.7
20260502192014 63 354 7.0 10.0 0.00 0.00 0.00 35 1019.8
20260502191725 63 266 3.0 6.0 0.00 0.00 0.00 36 1019.8
20260502191511 64 16 5.0 7.0 0.00 0.00 0.00 35 1019.8
20260502191009 66 17 11.0 14.0 0.00 0.00 0.00 34 1019.7
20260502190724 65 4 7.0 8.0 0.00 0.00 0.00 34 1019.8
20260502190506 65 67 2.0 6.0 0.00 0.00 0.00 34 1019.7
20260502190002 65 67 2.0 4.0 0.00 0.00 0.00 35 1019.8
20260502185724 65 225 1.0 2.0 0.00 0.00 0.00 35 1020.0
20260502185621 65 225 3.0 4.0 0.00 0.00 0.00 34 1020.1
20260502185458 66 240 3.0 4.0 0.00 0.00 0.00 36 1019.9
20260502184955 65 270 2.0 5.0 0.00 0.00 0.00 36 1019.8
20260502184623 64 360 0.0 2.0 0.00 0.00 0.00 37 1020.1
20260502184450 64 360 1.0 2.0 0.00 0.00 0.00 36 1019.9
20260502183947 63 277 1.0 6.0 0.00 0.00 0.00 36 1020.0
20260502183623 62 252 2.0 5.0 0.00 0.00 0.00 36 1020.1
20260502183443 63 225 3.0 4.0 0.00 0.00 0.00 36 1020.0
20260502182938 64 248 4.0 5.0 0.00 0.00 0.00 36 1020.0
20260502182721 63 270 2.0 4.0 0.00 0.00 0.00 37 1020.2
20260502182434 63 270 1.0 4.0 0.00 0.00 0.00 37 1020.0
20260502181930 62 270 0.0 1.0 0.00 0.00 0.00 38 1020.2
20260502181723 61 246 1.0 3.0 0.00 0.00 0.00 38 1020.3
20260502181429 62 250 5.0 9.0 0.00 0.00 0.00 37 1020.1
20260502180927 62 198 4.0 7.0 0.00 0.00 0.00 38 1020.2
20260502180722 61 218 5.0 8.0 0.00 0.00 0.00 38 1020.4
20260502180424 61 235 5.0 6.0 0.00 0.00 0.00 38 1020.2
20260502170425 56 233 5.0 7.0 0.00 0.00 0.00 41 1020.4
20260502170343 56 225 5.0 8.0 0.00 0.00 0.00 42 1020.3
20260502164330 55 225 5.0 7.0 0.00 0.00 0.00 44 1020.0
20260502163826 55 225 4.0 6.0 0.00 0.00 0.00 45 1019.9
20260502163423 54 223 5.0 7.0 0.00 0.00 0.00 45 1020.2
20260502163322 54 225 5.0 6.0 0.00 0.00 0.00 44 1020.0
20260502162820 54 242 5.0 6.0 0.00 0.00 0.00 44 1020.0
20260502162422 53 225 5.0 8.0 0.00 0.00 0.00 45 1020.1
20260502162316 54 225 5.0 7.0 0.00 0.00 0.00 45 1020.0
20260502161814 54 226 4.0 4.0 0.00 0.00 0.00 45 1020.0
20260502161422 53 225 5.0 7.0 0.00 0.00 0.00 43 1020.1
20260502161309 54 225 5.0 7.0 0.00 0.00 0.00 44 1019.8
20260502160808 53 247 4.0 7.0 0.00 0.00 0.00 44 1019.9
20260502160421 53 247 4.0 5.0 0.00 0.00 0.00 44 1020.0
20260502160306 53 228 3.0 4.0 0.00 0.00 0.00 44 1019.8
20260502152235 49 202 3.0 4.0 0.00 0.00 0.00 50 1019.6
20260502151733 48 225 1.0 2.0 0.00 0.00 0.00 51 1019.5
20260502151229 47 225 0.0 1.0 0.00 0.00 0.00 51 1019.3
20260502150727 47 135 2.0 3.0 0.00 0.00 0.00 53 1019.2
20260502150323 45 135 0.0 0.0 0.00 0.00 0.00 54 1019.3
20260502150224 45 135 1.0 2.0 0.00 0.00 0.00 54 1019.1
20260502130612 39 225 4.0 5.0 0.00 0.00 0.00 61 1016.5
20260502130421 39 225 4.0 4.0 0.00 0.00 0.00 62 1016.6
20260502130110 39 180 6.0 7.0 0.00 0.00 0.00 62 1016.6
20260502123555 44 270 1.0 2.0 0.00 0.00 0.00 49 1016.7
20260502123421 44 270 3.0 4.0 0.00 0.00 0.00 49 1016.8
20260502123052 46 270 4.0 5.0 0.00 0.00 0.00 48 1016.6
20260502122548 46 45 0.0 0.0 0.00 0.00 0.00 46 1016.4
20260502122423 46 45 0.0 0.0 0.00 0.00 0.00 47 1016.5
20260502122046 47 45 0.0 1.0 0.00 0.00 0.00 47 1016.3
20260502121543 47 56 3.0 4.0 0.00 0.00 0.00 47 1016.3
20260502121422 46 45 4.0 4.0 0.00 0.00 0.00 48 1016.6
20260502121041 46 78 2.0 4.0 0.00 0.00 0.00 48 1016.3
20260502120537 45 50 5.0 6.0 0.00 0.00 0.00 49 1016.4
20260502120521 45 50 4.0 6.0 0.00 0.00 0.00 49 1016.5
20260502115532 45 112 1.0 1.0 0.00 0.00 0.00 50 1016.4
20260502115522 44 112 0.0 1.0 0.00 0.00 0.00 50 1016.5
20260502115027 45 105 3.0 3.0 0.00 0.00 0.00 50 1016.3
20260502114524 46 48 5.0 5.0 0.00 0.00 0.00 49 1016.4
20260502114425 45 45 4.0 5.0 0.00 0.00 0.00 49 1016.5
20260502114021 45 45 2.0 2.0 0.00 0.00 0.00 51 1016.3
20260502113522 44 80 3.0 4.0 0.00 0.00 0.00 52 1016.4
20260502113519 44 90 2.0 4.0 0.00 0.00 0.00 52 1016.0
20260502113017 43 90 3.0 4.0 0.00 0.00 0.00 54 1016.0
20260502112515 42 67 4.0 5.0 0.00 0.00 0.00 53 1016.3
20260502112012 43 45 6.0 6.0 0.00 0.00 0.00 51 1016.4
20260502111509 45 3 7.0 8.0 0.00 0.00 0.00 50 1016.7
20260502111007 45 270 2.0 3.0 0.00 0.00 0.00 49 1016.3
20260502110522 45 270 1.0 3.0 0.00 0.00 0.00 48 1016.6
20260502110504 46 270 2.0 4.0 0.00 0.00 0.00 49 1016.6
20260502110422 45 270 1.0 3.0 0.00 0.00 0.00 49 1016.7
20260502110002 46 292 2.0 3.0 0.00 0.00 0.00 48 1016.4
20260502105459 47 270 3.0 4.0 0.00 0.00 0.00 47 1016.0
20260502105424 46 270 2.0 4.0 0.00 0.00 0.00 47 1016.2
20260502104956 48 270 4.0 5.0 0.00 0.00 0.00 46 1015.9
20260502104453 48 270 5.0 5.0 0.00 0.00 0.00 45 1015.8
20260502104423 48 270 4.0 5.0 0.00 0.00 0.00 45 1016.0
20260502103950 49 270 5.0 6.0 0.00 0.00 0.00 45 1015.7
20260502103448 48 247 4.0 4.0 0.00 0.00 0.00 46 1015.7
20260502102945 48 247 3.0 4.0 0.00 0.00 0.00 46 1015.5
20260502102442 47 247 4.0 4.0 0.00 0.00 0.00 46 1015.7
20260502102421 47 247 3.0 4.0 0.00 0.00 0.00 46 1015.9
20260502102323 47 247 3.0 4.0 0.00 0.00 0.00 46 1015.9
20260502101938 48 247 5.0 5.0 0.00 0.00 0.00 45 1015.7
20260502101437 48 247 4.0 5.0 0.00 0.00 0.00 44 1015.6
20260502101322 48 247 4.0 5.0 0.00 0.00 0.00 43 1015.7
20260502100934 49 225 5.0 6.0 0.00 0.00 0.00 44 1015.6
20260502100433 49 225 5.0 6.0 0.00 0.00 0.00 43 1015.5
20260502100324 49 225 4.0 4.0 0.00 0.00 0.00 43 1015.6
20260502091425 49 225 4.0 6.0 0.00 0.00 0.00 43 1015.9
20260502091408 50 225 5.0 7.0 0.00 0.00 0.00 42 1015.7
20260502090905 51 225 5.0 6.0 0.00 0.00 0.00 40 1015.7
20260502090522 51 225 5.0 6.0 0.00 0.00 0.00 39 1015.8
20260502090402 52 225 5.0 5.0 0.00 0.00 0.00 39 1015.6
20260502071257 58 270 0.0 0.0 0.00 0.00 0.00 35 1015.4
20260502070755 58 270 0.0 0.0 0.00 0.00 0.00 35 1015.5
20260502070252 58 270 0.0 1.0 0.00 0.00 0.00 35 1015.5
20260502065751 57 337 0.0 0.0 0.00 0.00 0.00 35 1015.6
20260502065248 57 337 0.0 0.0 0.00 0.00 0.00 35 1015.5
20260502064746 58 337 1.0 2.0 0.00 0.00 0.00 33 1015.5
20260502064244 59 337 1.0 3.0 0.00 0.00 0.00 32 1015.5
20260502063741 61 247 1.0 3.0 0.00 0.00 0.00 30 1015.6
20260502063239 62 236 3.0 4.0 0.00 0.00 0.00 28 1015.5
20260502062736 63 238 5.0 6.0 0.00 0.00 0.00 27 1015.5
20260502062233 63 225 5.0 7.0 0.00 0.00 0.00 27 1015.6
20260502061732 63 219 5.0 6.0 0.00 0.00 0.00 28 1015.6
20260502061229 62 199 7.0 9.0 0.00 0.00 0.00 28 1015.5
20260502060724 62 180 10.0 11.0 0.00 0.00 0.00 29 1015.4
20260502060220 62 180 9.0 11.0 0.00 0.00 0.00 28 1015.4
20260502055730 62 180 9.0 11.0 0.00 0.00 0.00 29 1015.5
20260502055719 62 180 9.0 11.0 0.00 0.00 0.00 28 1015.4
20260502055216 62 180 9.0 11.0 0.00 0.00 0.00 28 1015.4
20260502054715 63 180 9.0 10.0 0.00 0.00 0.00 28 1015.5
20260502054212 63 180 9.0 10.0 0.00 0.00 0.00 28 1015.5
20260502053728 63 180 8.0 9.0 0.00 0.00 0.00 28 1015.6
20260502053710 63 180 9.0 10.0 0.00 0.00 0.00 28 1015.5
20260502053206 63 180 9.0 10.0 0.00 0.00 0.00 28 1015.5
20260502052730 63 180 8.0 10.0 0.00 0.00 0.00 27 1015.7
20260502052704 63 180 9.0 10.0 0.00 0.00 0.00 27 1015.5
20260502052203 63 180 9.0 10.0 0.00 0.00 0.00 28 1015.5
20260502051828 63 180 8.0 9.0 0.00 0.00 0.00 27 1015.8
20260502051700 63 180 9.0 10.0 0.00 0.00 0.00 27 1015.5
20260502051159 63 180 8.0 10.0 0.00 0.00 0.00 27 1015.5
20260502050830 62 180 8.0 9.0 0.00 0.00 0.00 27 1015.9
20260502050654 63 180 8.0 10.0 0.00 0.00 0.00 27 1015.6
20260502050151 63 180 9.0 11.0 0.00 0.00 0.00 26 1015.7
20260502045928 62 180 9.0 10.0 0.00 0.00 0.00 27 1015.9
20260502045648 63 180 9.0 11.0 0.00 0.00 0.00 27 1015.6
20260502045145 63 179 9.0 11.0 0.00 0.00 0.00 25 1015.5
20260502044928 63 179 10.0 11.0 0.00 0.00 0.00 25 1015.7
20260502044642 64 178 10.0 11.0 0.00 0.00 0.00 23 1015.7
20260502044138 66 180 11.0 14.0 0.00 0.00 0.00 21 1015.5
20260502043931 66 180 10.0 12.0 0.00 0.00 0.00 20 1015.9
20260502043636 67 212 7.0 13.0 0.00 0.00 0.00 20 1015.5
20260502043133 67 180 4.0 4.0 0.00 0.00 0.00 19 1015.5
20260502042930 66 180 4.0 5.0 0.00 0.00 0.00 19 1015.6
20260502042632 67 180 5.0 5.0 0.00 0.00 0.00 20 1015.5
20260502042129 67 180 5.0 6.0 0.00 0.00 0.00 19 1015.5
20260502041627 67 187 5.0 7.0 0.00 0.00 0.00 19 1015.5
20260502041124 67 202 2.0 3.0 0.00 0.00 0.00 20 1015.4
20260502041029 67 202 2.0 2.0 0.00 0.00 0.00 20 1015.6
20260502040621 67 202 2.0 2.0 0.00 0.00 0.00 19 1015.4
20260502040118 67 202 1.0 2.0 0.00 0.00 0.00 20 1015.4
20260502040033 67 202 1.0 1.0 0.00 0.00 0.00 20 1015.5
20260502035614 67 202 2.0 3.0 0.00 0.00 0.00 19 1015.3
20260502035111 67 202 2.0 3.0 0.00 0.00 0.00 19 1015.4
20260502035029 67 202 2.0 2.0 0.00 0.00 0.00 19 1015.5
20260502034609 67 202 2.0 2.0 0.00 0.00 0.00 20 1015.2
20260502034108 68 202 2.0 2.0 0.00 0.00 0.00 20 1015.2
20260502033605 68 202 1.0 2.0 0.00 0.00 0.00 21 1015.2
20260502033129 67 202 1.0 1.0 0.00 0.00 0.00 21 1015.5
20260502033102 67 202 2.0 2.0 0.00 0.00 0.00 20 1015.2
20260502032558 68 135 0.0 0.0 0.00 0.00 0.00 20 1015.2
20260502032130 68 135 0.0 0.0 0.00 0.00 0.00 20 1015.5
20260502032055 68 135 0.0 0.0 0.00 0.00 0.00 21 1015.4
20260502031553 69 270 1.0 2.0 0.00 0.00 0.00 21 1015.4
20260502031129 69 270 1.0 2.0 0.00 0.00 0.00 20 1015.5
20260502031050 69 270 2.0 2.0 0.00 0.00 0.00 20 1015.2
20260502030549 70 270 2.0 2.0 0.00 0.00 0.00 19 1015.2
20260502030129 70 270 0.0 2.0 0.00 0.00 0.00 19 1015.4
20260502030047 71 270 1.0 2.0 0.00 0.00 0.00 20 1015.3
20260502030029 70 270 1.0 1.0 0.00 0.00 0.00 20 1015.5
20260502025544 71 270 1.0 3.0 0.00 0.00 0.00 18 1015.2
20260502025042 72 270 3.0 4.0 0.00 0.00 0.00 19 1015.2
20260502025030 71 270 2.0 3.0 0.00 0.00 0.00 19 1015.4
20260502024539 72 270 2.0 3.0 0.00 0.00 0.00 18 1015.2
20260502024037 73 270 4.0 5.0 0.00 0.00 0.00 18 1015.2
20260502023534 73 270 1.0 2.0 0.00 0.00 0.00 19 1015.2
20260502023032 73 270 3.0 4.0 0.00 0.00 0.00 19 1015.1
20260502022528 73 270 3.0 5.0 0.00 0.00 0.00 19 1015.3
20260502022030 73 270 2.0 4.0 0.00 0.00 0.00 19 1015.5
20260502022026 73 270 3.0 5.0 0.00 0.00 0.00 19 1015.3
20260502021523 73 270 4.0 6.0 0.00 0.00 0.00 18 1015.4
20260502021029 72 270 4.0 7.0 0.00 0.00 0.00 19 1015.4
20260502021020 73 270 6.0 8.0 0.00 0.00 0.00 18 1015.4
20260502020518 73 266 5.0 7.0 0.00 0.00 0.00 19 1015.4
20260502020014 73 248 5.0 6.0 0.00 0.00 0.00 18 1015.4
20260502015512 72 254 6.0 8.0 0.00 0.00 0.00 19 1015.5
20260502015030 72 253 4.0 6.0 0.00 0.00 0.00 19 1015.6
20260502015008 72 252 5.0 7.0 0.00 0.00 0.00 18 1015.5
20260502014928 72 252 5.0 7.0 0.00 0.00 0.00 18 1015.7
20260502014505 73 254 8.0 11.0 0.00 0.00 0.00 19 1015.4
20260502014002 73 240 8.0 10.0 0.00 0.00 0.00 19 1015.5
20260502013929 73 240 7.0 9.0 0.00 0.00 0.00 19 1015.6
20260502013457 73 270 4.0 6.0 0.00 0.00 0.00 19 1015.5
20260502012954 73 253 6.0 8.0 0.00 0.00 0.00 19 1015.5
20260502012929 73 253 6.0 8.0 0.00 0.00 0.00 19 1015.7
20260502012452 73 248 5.0 10.0 0.00 0.00 0.00 19 1015.5
20260502012028 73 270 5.0 7.0 0.00 0.00 0.00 19 1015.7
20260502011950 73 269 6.0 9.0 0.00 0.00 0.00 19 1015.6
20260502011445 73 247 6.0 7.0 0.00 0.00 0.00 19 1015.7
20260502010942 73 241 9.0 11.0 0.00 0.00 0.00 19 1015.5
20260502010439 74 260 4.0 6.0 0.00 0.00 0.00 18 1015.7
20260502010029 73 262 6.0 8.0 0.00 0.00 0.00 19 1015.8
20260502005935 74 248 5.0 6.0 0.00 0.00 0.00 19 1015.6
20260502005433 73 265 4.0 6.0 0.00 0.00 0.00 19 1015.7
20260502005030 73 270 2.0 4.0 0.00 0.00 0.00 18 1015.9
20260502004931 73 256 4.0 7.0 0.00 0.00 0.00 18 1015.8
20260502004427 73 235 6.0 8.0 0.00 0.00 0.00 18 1015.7
20260502004028 73 258 5.0 8.0 0.00 0.00 0.00 19 1016.0
20260502003924 73 247 5.0 6.0 0.00 0.00 0.00 19 1015.7
20260502003421 73 264 5.0 8.0 0.00 0.00 0.00 19 1015.8
20260502002917 73 249 9.0 12.0 0.00 0.00 0.00 19 1015.7
20260502002415 73 245 4.0 7.0 0.00 0.00 0.00 18 1016.0
20260502001930 73 289 1.0 2.0 0.00 0.00 0.00 19 1016.2
20260502001912 74 308 4.0 5.0 0.00 0.00 0.00 19 1016.0
20260502001410 74 256 3.0 5.0 0.00 0.00 0.00 19 1016.0
20260502000929 73 270 4.0 6.0 0.00 0.00 0.00 18 1016.3
20260502000907 73 270 4.0 7.0 0.00 0.00 0.00 19 1016.0
20260502000406 72 225 2.0 6.0 0.00 0.00 0.00 19 1016.2
20260501235929 72 288 4.0 7.0 0.00 0.00 0.00 19 1016.2
20260501235901 72 263 7.0 10.0 0.00 0.00 0.00 18 1016.0
20260501235357 73 234 7.0 10.0 0.00 0.00 0.00 19 1016.3
20260501235027 72 237 6.0 8.0 0.00 0.00 0.00 19 1016.4
20260501234928 72 249 4.0 7.0 0.00 0.00 0.00 19 1016.4
20260501234852 73 245 5.0 6.0 0.00 0.00 0.00 19 1016.3
20260501234349 73 247 7.0 11.0 0.00 0.00 0.00 19 1016.4
20260501233930 73 245 3.0 6.0 0.00 0.00 0.00 20 1016.6
20260501233848 73 270 3.0 5.0 0.00 0.00 0.00 20 1016.5
20260501233345 73 270 5.0 8.0 0.00 0.00 0.00 18 1016.4
20260501232929 73 246 6.0 9.0 0.00 0.00 0.00 19 1016.6
20260501232840 73 237 6.0 9.0 0.00 0.00 0.00 20 1016.4
20260501232338 73 232 4.0 6.0 0.00 0.00 0.00 20 1016.6
20260501231929 72 270 1.0 3.0 0.00 0.00 0.00 19 1016.6
20260501231835 73 270 3.0 6.0 0.00 0.00 0.00 20 1016.6
20260501231333 73 270 6.0 8.0 0.00 0.00 0.00 19 1016.7
20260501230946 72 242 2.0 4.0 0.00 0.00 0.00 19 1017.0
20260501230831 73 247 1.0 3.0 0.00 0.00 0.00 19 1016.8
20260501230330 72 225 4.0 6.0 0.00 0.00 0.00 21 1016.8
20260501230029 71 270 0.0 1.0 0.00 0.00 0.00 21 1017.0
20260501225827 72 274 4.0 6.0 0.00 0.00 0.00 20 1016.9
20260501225325 72 220 5.0 9.0 0.00 0.00 0.00 20 1016.9
20260501225030 71 246 7.0 11.0 0.00 0.00 0.00 19 1017.1
20260501224928 71 239 7.0 10.0 0.00 0.00 0.00 20 1017.0
20260501224821 72 246 9.0 11.0 0.00 0.00 0.00 21 1016.8
20260501224318 72 237 6.0 10.0 0.00 0.00 0.00 20 1016.9
20260501224028 72 272 6.0 9.0 0.00 0.00 0.00 20 1017.0
20260501223814 73 269 6.0 8.0 0.00 0.00 0.00 19 1016.9